AAL2062 KCLE-KDCA

Flight info

Callsign AAL2062
Flight time 0h 45m
Altitude 31000
Route KKIDS1 NUSMM BUCKO FRDMM6
Aircraft A319/M-VGDW/C

Departure

Time 2026-05-07 02:24
Airport Cleveland Hopkins International Airport (KCLE)

Arrival

Time 2026-05-07 03:09
Airport Ronald Reagan Washington National Airport (KDCA)
Time Latitude Longitude Altitude Speed Heading
2026-05-07 02:21 41.41011 -81.83956 776 ft 0 kts 110°
2026-05-07 02:21 41.41023 -81.84004 776 ft 8 kts 110°
2026-05-07 02:22 41.41019 -81.84027 776 ft 12 kts 307°
2026-05-07 02:22 41.41110 -81.84261 776 ft 34 kts 296°
2026-05-07 02:22 41.41266 -81.84412 774 ft 27 kts 337°
2026-05-07 02:22 41.41303 -81.84569 770 ft 15 kts 226°
2026-05-07 02:23 41.41139 -81.84835 771 ft 74 kts 228°
2026-05-07 02:23 41.40631 -81.85623 788 ft 146 kts 229°
2026-05-07 02:23 41.39883 -81.86836 998 ft 196 kts 233°
2026-05-07 02:23 41.38799 -81.88225 1204 ft 244 kts 205°
2026-05-07 02:24 41.37133 -81.88693 2152 ft 253 kts 176°
2026-05-07 02:24 41.35473 -81.87927 2954 ft 259 kts 146°
2026-05-07 02:24 41.34055 -81.86366 3731 ft 269 kts 143°
2026-05-07 02:24 41.32526 -81.84928 4526 ft 270 kts 149°
2026-05-07 02:25 41.30902 -81.83589 5316 ft 285 kts 152°
2026-05-07 02:25 41.29120 -81.82175 6117 ft 311 kts 152°
2026-05-07 02:25 41.27184 -81.80647 6885 ft 336 kts 152°
2026-05-07 02:25 41.25111 -81.79000 7655 ft 359 kts 152°
2026-05-07 02:26 41.22943 -81.77264 8422 ft 379 kts 152°
2026-05-07 02:26 41.20632 -81.75403 9223 ft 397 kts 152°
2026-05-07 02:26 41.18225 -81.73455 10025 ft 413 kts 153°
2026-05-07 02:26 41.15731 -81.71431 10762 ft 427 kts 153°
2026-05-07 02:27 41.13157 -81.69336 11439 ft 441 kts 153°
2026-05-07 02:27 41.10499 -81.67175 12079 ft 455 kts 154°
2026-05-07 02:27 41.07765 -81.64951 12729 ft 467 kts 154°
2026-05-07 02:27 41.04966 -81.62673 13384 ft 477 kts 154°
2026-05-07 02:28 41.02150 -81.60381 14024 ft 486 kts 155°
2026-05-07 02:28 40.99241 -81.58014 14636 ft 495 kts 155°
2026-05-07 02:28 40.96292 -81.55614 15235 ft 502 kts 155°
2026-05-07 02:28 40.93300 -81.53182 15846 ft 507 kts 156°
2026-05-07 02:29 40.90276 -81.50729 16482 ft 512 kts 156°
2026-05-07 02:29 40.87226 -81.48257 17127 ft 516 kts 157°
2026-05-07 02:29 40.84151 -81.45770 17791 ft 520 kts 158°
2026-05-07 02:29 40.81060 -81.43271 18435 ft 522 kts 158°
2026-05-07 02:30 40.77995 -81.40797 19008 ft 524 kts 158°
2026-05-07 02:30 40.74877 -81.38284 19594 ft 526 kts 159°
2026-05-07 02:30 40.71749 -81.35766 20190 ft 527 kts 159°
2026-05-07 02:30 40.68617 -81.33250 20798 ft 528 kts 159°
2026-05-07 02:31 40.65473 -81.30727 21424 ft 529 kts 160°
2026-05-07 02:31 40.62330 -81.28207 22063 ft 529 kts 160°
2026-05-07 02:31 40.59183 -81.25687 22716 ft 529 kts 161°
2026-05-07 02:31 40.56044 -81.23174 23386 ft 528 kts 161°
2026-05-07 02:32 40.52947 -81.20698 23973 ft 527 kts 161°
2026-05-07 02:32 40.49811 -81.18196 24536 ft 526 kts 162°
2026-05-07 02:32 40.46684 -81.15705 25113 ft 525 kts 162°
2026-05-07 02:32 40.43564 -81.13225 25708 ft 524 kts 162°
2026-05-07 02:33 40.40448 -81.10751 26312 ft 523 kts 163°
2026-05-07 02:33 40.37343 -81.08290 26925 ft 521 kts 163°
2026-05-07 02:33 40.34249 -81.05840 27554 ft 519 kts 163°
2026-05-07 02:33 40.31165 -81.03403 28193 ft 516 kts 164°
2026-05-07 02:34 40.28136 -81.01011 28848 ft 514 kts 164°
2026-05-07 02:34 40.25079 -80.98602 29526 ft 511 kts 165°
2026-05-07 02:34 40.22039 -80.96210 30190 ft 508 kts 165°
2026-05-07 02:34 40.19010 -80.93835 30629 ft 509 kts 165°
2026-05-07 02:35 40.15951 -80.91458 30808 ft 515 kts 165°
2026-05-07 02:35 40.12847 -80.89064 30906 ft 523 kts 165°
2026-05-07 02:35 40.06466 -80.84156 30956 ft 539 kts 164°
2026-05-07 02:36 40.03282 -80.81507 30965 ft 556 kts 157°
2026-05-07 02:36 40.00370 -80.78160 30974 ft 572 kts 149°
2026-05-07 02:36 39.94765 -80.70717 30971 ft 578 kts 146°
2026-05-07 02:37 39.89259 -80.63093 30976 ft 578 kts 146°
2026-05-07 02:37 39.83758 -80.55452 30976 ft 578 kts 146°
2026-05-07 02:38 39.78598 -80.48339 30977 ft 577 kts 146°
2026-05-07 02:38 39.73102 -80.40825 30977 ft 577 kts 146°
2026-05-07 02:39 39.67558 -80.33308 30980 ft 576 kts 146°
2026-05-07 02:39 39.62012 -80.25821 30985 ft 575 kts 146°
2026-05-07 02:40 39.56503 -80.18421 30982 ft 574 kts 146°
2026-05-07 02:40 39.50950 -80.11001 30977 ft 573 kts 146°
2026-05-07 02:41 39.45397 -80.03611 30975 ft 572 kts 146°
2026-05-07 02:41 39.39876 -79.96296 30965 ft 571 kts 146°
2026-05-07 02:42 39.34320 -79.88965 30968 ft 570 kts 147°
2026-05-07 02:42 39.29130 -79.81068 30463 ft 598 kts 129°
2026-05-07 02:43 39.27391 -79.76113 30020 ft 615 kts 115°
2026-05-07 02:43 39.26452 -79.70689 29476 ft 626 kts 101°
2026-05-07 02:43 39.26357 -79.65049 28957 ft 631 kts 88°
2026-05-07 02:43 39.26788 -79.59489 28471 ft 631 kts 86°
2026-05-07 02:44 39.26885 -79.53846 27996 ft 628 kts 94°
2026-05-07 02:44 39.26663 -79.48232 27542 ft 626 kts 97°
2026-05-07 02:44 39.26305 -79.42648 27103 ft 623 kts 99°
2026-05-07 02:44 39.25875 -79.37106 26673 ft 617 kts 99°
2026-05-07 02:45 39.25405 -79.31657 26275 ft 606 kts 100°
2026-05-07 02:45 39.24917 -79.26287 25836 ft 602 kts 101°
2026-05-07 02:45 39.24440 -79.20938 25363 ft 598 kts 100°
2026-05-07 02:45 39.23975 -79.15640 24910 ft 591 kts 100°
2026-05-07 02:46 39.23521 -79.10395 24460 ft 587 kts 100°
2026-05-07 02:46 39.23069 -79.05172 24018 ft 584 kts 100°
2026-05-07 02:46 39.22613 -78.99988 23548 ft 580 kts 100°
2026-05-07 02:46 39.22153 -78.94915 22811 ft 574 kts 101°
2026-05-07 02:47 39.21680 -78.89863 22102 ft 562 kts 100°
2026-05-07 02:47 39.21209 -78.84916 21421 ft 553 kts 100°
2026-05-07 02:47 39.20792 -78.80592 20866 ft 548 kts 100°
2026-05-07 02:47 39.20320 -78.75749 20303 ft 540 kts 100°
2026-05-07 02:48 39.19851 -78.70971 19788 ft 534 kts 100°
2026-05-07 02:48 39.19384 -78.66240 19293 ft 529 kts 100°
2026-05-07 02:48 39.18919 -78.61561 18814 ft 523 kts 100°
2026-05-07 02:48 39.18457 -78.56938 18367 ft 517 kts 100°
2026-05-07 02:49 39.18001 -78.52374 17859 ft 511 kts 99°
2026-05-07 02:49 39.17557 -78.47916 17362 ft 506 kts 100°
2026-05-07 02:49 39.17111 -78.43444 16897 ft 500 kts 100°
2026-05-07 02:49 39.16569 -78.39053 16388 ft 493 kts 105°
2026-05-07 02:50 39.15788 -78.34790 15867 ft 483 kts 108°
2026-05-07 02:50 39.14921 -78.30719 15381 ft 459 kts 110°
2026-05-07 02:50 39.14031 -78.26849 14933 ft 447 kts 111°
2026-05-07 02:50 39.13109 -78.23041 14510 ft 444 kts 112°
2026-05-07 02:51 39.12176 -78.19296 14083 ft 430 kts 112°
2026-05-07 02:51 39.11274 -78.15716 13701 ft 412 kts 112°
2026-05-07 02:51 39.10405 -78.12293 13341 ft 407 kts 112°
2026-05-07 02:51 39.09558 -78.08978 13000 ft 407 kts 112°
2026-05-07 02:52 39.08675 -78.05537 12664 ft 403 kts 112°
2026-05-07 02:52 39.07799 -78.02129 12389 ft 400 kts 112°
2026-05-07 02:52 39.06926 -77.98728 12129 ft 400 kts 112°
2026-05-07 02:52 39.06055 -77.95336 11877 ft 398 kts 112°
2026-05-07 02:53 39.05187 -77.91964 11623 ft 395 kts 112°
2026-05-07 02:53 39.04326 -77.88617 11393 ft 393 kts 112°
2026-05-07 02:53 39.03469 -77.85281 11163 ft 393 kts 113°
2026-05-07 02:53 39.02613 -77.81954 10945 ft 391 kts 113°
2026-05-07 02:54 39.01759 -77.78640 10694 ft 391 kts 113°
2026-05-07 02:54 39.00906 -77.75340 10409 ft 384 kts 113°
2026-05-07 02:54 39.00103 -77.72204 10147 ft 365 kts 113°
2026-05-07 02:54 38.99310 -77.69190 9853 ft 348 kts 115°
2026-05-07 02:55 38.98475 -77.66339 9535 ft 334 kts 117°
2026-05-07 02:55 38.97623 -77.63622 9217 ft 322 kts 118°
2026-05-07 02:55 38.96766 -77.61012 8940 ft 315 kts 119°
2026-05-07 02:55 38.95890 -77.58442 8648 ft 313 kts 120°
2026-05-07 02:56 38.95002 -77.55894 8381 ft 311 kts 120°
2026-05-07 02:56 38.94116 -77.53380 8114 ft 307 kts 120°
2026-05-07 02:56 38.93233 -77.50889 7871 ft 306 kts 120°
2026-05-07 02:56 38.92333 -77.48408 7493 ft 307 kts 121°
2026-05-07 02:57 38.91410 -77.45991 7019 ft 304 kts 122°
2026-05-07 02:57 38.90455 -77.43590 6554 ft 300 kts 122°
2026-05-07 02:57 38.89730 -77.41839 6256 ft 294 kts 122°
2026-05-07 02:57 38.88772 -77.39562 5984 ft 282 kts 123°
2026-05-07 02:58 38.87827 -77.37357 5993 ft 286 kts 123°
2026-05-07 02:58 38.86848 -77.35108 5980 ft 289 kts 123°
2026-05-07 02:58 38.86137 -77.32680 5990 ft 297 kts 103°
2026-05-07 02:58 38.85613 -77.30128 6005 ft 296 kts 115°
2026-05-07 02:59 38.84797 -77.27717 5967 ft 294 kts 119°
2026-05-07 02:59 38.83922 -77.25348 5970 ft 294 kts 120°
2026-05-07 02:59 38.82945 -77.23060 6011 ft 290 kts 126°
2026-05-07 02:59 38.81871 -77.20924 5706 ft 281 kts 128°
2026-05-07 03:00 38.80808 -77.18923 5332 ft 264 kts 129°
2026-05-07 03:00 38.79768 -77.17001 4959 ft 263 kts 129°
2026-05-07 03:00 38.78725 -77.15102 4589 ft 258 kts 130°
2026-05-07 03:00 38.77690 -77.13244 4209 ft 255 kts 129°
2026-05-07 03:01 38.76521 -77.11585 3922 ft 248 kts 148°
2026-05-07 03:01 38.74943 -77.10831 3652 ft 242 kts 173°
2026-05-07 03:01 38.73276 -77.10568 3371 ft 242 kts 177°
2026-05-07 03:01 38.71601 -77.10396 3150 ft 239 kts 179°
2026-05-07 03:02 38.69929 -77.10271 3044 ft 242 kts 179°
2026-05-07 03:02 38.68243 -77.10159 2996 ft 243 kts 179°
2026-05-07 03:02 38.66656 -77.10057 2967 ft 218 kts 180°
2026-05-07 03:02 38.65229 -77.09885 2962 ft 197 kts 167°
2026-05-07 03:03 38.64119 -77.08915 2974 ft 200 kts 127°
2026-05-07 03:03 38.63678 -77.07236 2979 ft 202 kts 96°
2026-05-07 03:03 38.63596 -77.05440 2973 ft 202 kts 90°
2026-05-07 03:03 38.63973 -77.03757 2979 ft 198 kts 52°
2026-05-07 03:04 38.64989 -77.02588 2978 ft 198 kts 33°
2026-05-07 03:04 38.66220 -77.01950 2986 ft 191 kts 360°
2026-05-07 03:04 38.67538 -77.01981 2972 ft 189 kts 354°
2026-05-07 03:04 38.68825 -77.02083 2966 ft 189 kts 352°
2026-05-07 03:05 38.70151 -77.02236 2775 ft 191 kts 352°
2026-05-07 03:05 38.71454 -77.02397 2491 ft 186 kts 353°
2026-05-07 03:05 38.72721 -77.02534 2216 ft 179 kts 354°
2026-05-07 03:05 38.73933 -77.02651 1991 ft 169 kts 355°
2026-05-07 03:06 38.75055 -77.02755 1775 ft 154 kts 355°
2026-05-07 03:06 38.76086 -77.02866 1571 ft 147 kts 356°
2026-05-07 03:06 38.77119 -77.02961 1395 ft 150 kts 356°
2026-05-07 03:06 38.78167 -77.03055 1213 ft 153 kts 355°
2026-05-07 03:07 38.79206 -77.03164 1010 ft 147 kts 354°
2026-05-07 03:07 38.80159 -77.03273 840 ft 133 kts 355°
2026-05-07 03:07 38.81054 -77.03360 673 ft 131 kts 354°
2026-05-07 03:07 38.81968 -77.03460 493 ft 131 kts 355°
2026-05-07 03:08 38.82846 -77.03538 305 ft 127 kts 354°
2026-05-07 03:08 38.83739 -77.03627 148 ft 128 kts 353°
2026-05-07 03:08 38.84614 -77.03722 30 ft 121 kts 353°
2026-05-07 03:08 38.85269 -77.03788 27 ft 52 kts 356°
2026-05-07 03:09 38.85476 -77.03830 28 ft 23 kts 328°
2026-05-07 03:09 38.85527 -77.03947 24 ft 13 kts 287°
2026-05-07 03:09 38.85537 -77.04041 26 ft 8 kts 274°
2026-05-07 03:09 38.85532 -77.04121 26 ft 10 kts 260°
2026-05-07 03:10 38.85537 -77.04204 24 ft 9 kts 313°
2026-05-07 03:10 38.85560 -77.04221 24 ft 0 kts 340°